Date,TemperatureHighF,TemperatureAvgF,TemperatureLowF,DewpointHighF,DewpointAvgF,DewpointLowF,HumidityHigh,HumidityAvg,HumidityLow,PressureMaxIn,PressureMinIn,WindSpeedMaxMPH,WindSpeedAvgMPH,GustSpeedMaxMPH,PrecipitationSumIn
2013-1-1,39.5,34.7,30.9,32.0,27.2,15.6,96,76,45,29.58,29.14,25,7,25,0.08
2013-1-2,33.3,29.9,26.5,29.5,22.3,18.8,95,74,56,29.55,29.23,23,5,23,0.00
2013-1-3,33.1,30.5,27.1,20.1,16.9,14.3,67,57,50,29.57,29.51,31,13,31,0.00
2013-1-4,28.4,25.9,24.3,15.0,12.6,10.3,61,57,53,29.80,29.56,24,8,24,0.00
2013-1-5,31.4,30.0,27.8,19.2,16.4,13.0,63,56,51,29.73,29.29,33,14,33,0.00
2013-1-6,30.0,27.5,25.6,20.2,15.6,12.7,71,60,56,29.35,29.05,29,14,29,0.00
2013-1-7,29.3,25.6,23.7,20.1,13.3,10.2,73,59,51,29.34,29.04,32,13,32,0.00
2013-1-8,25.4,18.4,10.4,12.3,8.9,4.9,80,66,55,29.97,29.34,21,3,21,0.00
2013-1-9,20.0,13.0,5.7,8.7,5.3,0.6,86,72,57,30.06,29.90,32,7,32,0.00
2013-1-10,21.9,19.0,13.1,10.8,8.8,5.9,77,64,57,30.11,29.92,30,8,30,0.00
2013-1-11,27.1,23.6,20.8,17.6,11.9,8.0,76,61,53,30.09,29.91,27,8,27,0.00
2013-1-12,29.1,26.6,24.8,26.3,18.6,12.7,90,73,56,30.08,29.87,27,9,27,0.00
2013-1-13,33.0,31.6,29.1,32.3,29.7,25.8,98,92,85,29.88,29.62,8,1,8,1.06
2013-1-14,35.6,33.3,31.8,34.7,32.2,22.9,100,96,66,29.85,29.44,13,1,13,0.99
2013-1-15,33.7,21.0,15.1,24.9,12.8,8.9,81,71,55,30.19,29.85,11,1,11,0.00
2013-1-16,23.8,21.4,19.0,17.7,12.7,6.4,88,70,52,30.14,29.59,26,6,26,0.00
2013-1-17,19.0,14.6,8.5,15.8,10.7,3.6,89,84,80,29.88,29.52,7,0,7,0.00
2013-1-18,15.9,7.9,-4.7,6.6,-0.3,-10.9,83,69,53,30.18,29.88,37,6,37,0.00
2013-1-19,20.3,18.2,15.7,4.6,3.1,1.5,55,51,48,30.19,29.94,40,18,45,0.01
2013-1-20,27.5,22.3,17.3,16.3,9.0,1.3,66,56,50,29.95,29.81,37,13,37,0.00
2013-1-21,30.0,25.5,23.4,18.3,15.0,12.6,68,64,60,29.87,29.69,35,15,35,0.00
2013-1-22,31.1,29.2,27.2,19.0,17.0,14.3,63,60,56,29.69,29.39,36,17,36,0.00
2013-1-23,30.5,27.9,23.8,22.4,17.9,12.6,84,66,54,29.39,29.28,30,14,30,0.00
2013-1-24,24.1,21.9,20.4,16.1,12.3,10.9,78,66,60,29.45,29.33,25,2,25,0.00
2013-1-25,29.7,16.8,6.9,28.7,10.6,-7.1,96,77,48,29.53,29.22,30,1,30,0.00
2013-1-26,8.7,2.4,-3.6,-6.7,-16.0,-21.7,49,41,35,29.82,29.53,31,12,31,0.00
2013-1-27,-0.5,-3.2,-6.4,-21.1,-23.7,-27.8,44,36,29,30.16,29.82,36,12,36,0.00
2013-1-28,4.0,0.6,-2.8,-10.2,-24.2,-28.5,64,30,22,30.22,29.93,45,19,45,0.00
2013-1-29,8.3,3.5,-1.6,-4.3,-11.3,-17.4,63,50,40,29.93,29.76,50,19,50,0.00
2013-1-30,20.3,14.9,8.3,12.6,2.0,-8.6,75,56,46,29.86,29.63,34,13,34,0.00
2013-1-31,29.3,23.6,18.5,26.0,19.9,12.4,95,86,76,29.89,29.69,16,1,16,0.00
2013-2-1,32.8,28.8,23.7,22.6,18.1,15.9,84,65,54,29.94,29.66,35,14,35,0.00
2013-2-2,31.9,29.1,26.6,19.1,17.3,15.8,65,61,56,29.66,29.35,34,16,34,0.00
2013-2-3,33.3,29.3,26.5,25.5,19.6,16.0,82,67,57,29.44,29.22,35,10,35,0.00
2013-2-4,34.2,28.6,23.5,23.7,19.8,15.8,83,70,57,29.62,29.44,18,3,18,0.00
2013-2-5,30.8,23.9,16.2,16.2,12.2,10.1,78,61,45,29.60,29.43,22,5,22,0.00
2013-2-6,28.3,24.2,20.4,20.6,15.4,9.4,85,69,58,29.57,29.41,20,3,20,0.00
2013-2-7,25.0,21.6,19.5,15.1,10.6,7.8,80,62,53,29.56,29.28,31,11,31,0.00
2013-2-8,29.6,23.4,18.9,22.8,16.6,8.1,86,75,57,29.73,29.31,23,3,23,0.00
2013-2-9,36.3,31.2,26.2,26.9,19.1,14.7,76,60,50,29.71,28.97,32,13,32,0.00
2013-2-10,37.5,32.2,27.2,31.3,27.2,24.5,95,82,61,29.42,28.93,19,3,19,0.03
2013-2-11,29.4,23.4,12.6,28.1,20.1,8.7,95,87,79,29.72,29.41,14,1,14,0.00
2013-2-12,26.8,21.8,15.2,14.2,11.6,9.7,82,65,55,29.73,29.69,28,9,28,0.00
2013-2-13,27.7,24.4,20.6,14.8,11.8,8.1,64,58,54,29.80,29.66,30,13,30,0.00
2013-2-14,31.4,28.7,26.0,21.3,15.5,10.9,78,57,50,29.66,29.21,29,12,29,0.01
2013-2-15,29.0,24.6,19.0,25.4,20.9,15.5,89,86,80,29.84,29.43,19,1,19,0.00
2013-2-16,22.8,19.8,14.9,16.3,12.1,7.2,90,72,59,29.97,29.74,22,5,24,0.00
2013-2-17,29.0,24.8,20.0,18.9,12.0,8.4,81,58,49,29.76,29.50,28,12,28,0.00
2013-2-18,20.1,15.3,11.8,15.5,6.7,-1.7,83,69,46,29.82,29.64,28,5,28,0.00
2013-2-19,15.5,13.1,10.6,-0.8,-3.4,-5.4,51,47,42,29.80,29.29,45,20,45,0.00
2013-2-20,26.0,19.4,13.4,8.4,5.1,-1.8,72,54,43,29.29,29.03,38,16,38,0.00
2013-2-21,25.7,18.9,14.6,7.9,5.5,2.6,63,56,45,29.20,29.04,26,8,26,0.00
2013-2-22,24.8,17.8,13.3,17.3,11.5,4.1,82,76,60,29.38,29.12,13,2,13,0.00
2013-2-23,26.2,21.0,15.1,14.0,8.0,5.0,82,57,41,29.35,29.12,36,14,36,0.00
2013-2-24,30.8,23.4,16.7,13.8,10.5,6.8,80,58,46,29.62,29.31,24,8,24,0.00
2013-2-25,31.1,23.9,17.1,11.5,8.6,5.6,61,52,42,29.65,29.59,32,13,32,0.00
2013-2-26,33.7,28.8,24.4,9.8,5.7,2.0,52,37,27,29.60,29.32,31,14,31,0.00
2013-2-27,30.0,27.2,24.3,11.1,8.0,5.0,54,44,36,29.32,29.22,34,15,34,0.00
2013-2-28,34.0,28.2,23.5,15.8,12.2,8.2,65,51,41,29.33,29.23,28,11,28,0.00
2013-3-1,32.4,25.3,17.8,24.7,17.0,11.6,83,71,57,29.87,29.32,11,1,11,0.00
2013-3-2,37.0,25.3,12.8,13.8,10.6,7.2,86,56,32,30.07,29.86,21,4,21,0.00
2013-3-3,34.3,26.6,20.8,13.1,9.0,5.0,56,47,35,30.42,30.06,28,13,28,0.00
2013-3-4,37.3,29.5,21.5,10.9,8.3,5.6,54,41,28,30.45,30.25,24,8,24,0.00
2013-3-5,39.8,29.7,22.2,18.6,12.2,8.8,70,49,31,30.26,29.92,24,4,24,0.00
2013-3-6,39.5,28.7,18.5,18.6,13.2,9.4,68,53,40,29.93,29.80,23,4,23,0.00
2013-3-7,33.1,30.3,27.4,16.1,12.5,10.7,58,47,42,29.80,29.50,32,10,32,0.00
2013-3-8,43.5,35.6,26.6,28.5,23.2,14.8,81,61,38,29.70,29.53,14,2,14,0.00
2013-3-9,41.6,32.7,28.3,25.9,21.3,14.4,87,64,33,30.03,29.70,9,1,9,0.00
2013-3-10,36.3,30.0,25.0,27.1,21.9,15.8,90,73,49,30.12,30.02,14,2,15,0.02
2013-3-11,36.9,30.1,21.9,19.7,13.0,5.7,87,51,31,30.22,30.12,34,9,34,0.00
2013-3-12,28.1,24.2,20.8,9.9,-3.0,-9.8,46,30,20,30.25,30.01,41,16,41,0.00
2013-3-13,23.7,19.5,14.6,-7.6,-12.8,-18.9,28,23,16,30.01,29.82,39,15,39,0.00
2013-3-14,19.0,14.4,9.5,-3.7,-8.6,-14.2,40,34,27,29.91,29.80,41,19,41,0.00
2013-3-15,23.8,19.4,14.9,-5.6,-9.8,-13.1,39,26,21,29.89,29.69,42,17,42,0.00
2013-3-16,27.8,19.6,12.3,-1.1,-5.6,-11.4,43,32,25,30.04,29.80,29,12,29,0.00
2013-3-17,28.8,16.8,3.7,8.1,0.4,-5.3,67,49,29,30.10,29.99,13,2,13,0.00
2013-3-18,28.7,15.5,-1.2,6.5,-0.3,-6.9,82,53,26,29.99,29.81,13,2,13,0.00
2013-3-19,23.7,19.0,12.1,5.8,-4.5,-12.2,66,36,25,29.84,29.80,27,11,27,0.00
2013-3-20,22.8,15.2,5.1,-5.4,-10.2,-14.4,53,31,23,29.93,29.81,27,9,27,0.00
2013-3-21,26.3,13.8,-0.7,11.0,-7.4,-13.3,74,40,21,30.15,29.93,12,3,14,0.00
2013-3-22,24.3,19.5,15.2,20.5,14.2,9.5,89,79,67,30.11,29.73,14,4,19,0.00
2013-3-23,30.5,26.2,21.5,25.2,22.0,17.1,93,84,65,29.78,29.67,14,3,14,0.01
2013-3-24,33.9,26.7,21.5,22.4,17.0,13.3,85,67,48,29.78,29.48,24,7,24,0.00
2013-3-25,21.9,18.3,8.7,17.9,13.5,2.2,88,81,75,29.62,29.31,16,3,16,0.00
2013-3-26,17.3,8.8,-3.2,3.1,-1.2,-10.7,78,64,46,30.14,29.60,11,2,14,0.00
2013-3-27,26.2,9.8,-8.0,3.0,-7.5,-15.4,76,49,26,30.21,30.14,19,4,19,0.00
2013-3-28,31.9,23.6,15.5,5.7,0.0,-5.1,54,36,27,30.15,29.91,24,9,24,0.00
2013-3-29,37.2,30.9,25.4,17.4,11.7,2.7,54,44,35,29.91,29.81,26,12,29,0.02
2013-3-30,45.2,34.8,27.8,31.0,21.4,15.3,93,59,35,30.18,29.89,18,4,18,0.09
2013-3-31,45.8,34.8,26.5,30.0,22.9,17.4,95,64,35,30.19,30.04,10,2,13,0.00
2013-4-1,43.1,31.6,20.1,22.0,17.0,12.0,75,56,30,30.04,29.86,16,2,16,0.00
2013-4-2,43.5,31.4,20.3,19.9,13.3,8.4,76,49,25,30.11,29.93,12,3,14,0.00
2013-4-3,43.2,33.1,22.2,17.0,11.6,7.8,68,43,25,30.18,30.10,19,5,19,0.00
2013-4-4,34.9,30.8,26.8,12.9,1.5,-8.4,49,29,16,30.15,29.74,33,12,33,0.00
2013-4-5,29.1,24.6,19.5,-1.0,-5.5,-10.8,35,26,23,29.75,29.45,36,13,36,0.00
2013-4-6,32.1,23.5,17.1,22.6,5.5,-6.4,89,48,29,29.45,29.37,24,8,24,0.00
2013-4-7,24.3,20.4,10.1,21.3,14.4,3.5,89,78,61,29.72,29.42,15,3,15,0.00
2013-4-8,17.9,14.4,6.9,12.2,9.2,1.2,84,80,73,29.73,29.21,12,2,12,0.00
2013-4-9,22.0,17.3,12.6,11.9,9.1,5.8,85,71,51,29.36,29.00,20,4,20,0.00
2013-4-10,24.6,15.6,5.3,11.7,5.7,-1.5,82,66,40,29.90,29.35,16,3,16,0.02
2013-4-11,27.7,14.4,-2.0,6.2,-1.6,-9.2,78,51,27,30.03,29.89,16,3,16,0.00
2013-4-12,27.7,19.1,7.8,-1.9,-4.9,-7.9,49,35,24,30.06,29.96,30,11,30,0.00
2013-4-13,30.6,24.2,17.9,-0.5,-4.1,-7.8,35,28,23,30.34,30.05,44,13,44,0.00
2013-4-14,40.2,27.2,12.1,8.9,2.3,-3.2,57,35,20,30.43,30.34,22,5,22,0.00
2013-4-15,34.9,27.3,18.2,6.3,3.4,-0.6,55,36,27,30.38,30.25,22,8,27,0.00
2013-4-16,34.9,27.9,19.8,8.5,6.6,3.2,57,41,29,30.25,30.02,25,9,25,0.00
2013-4-17,36.9,27.0,13.1,19.7,10.7,2.7,70,50,38,30.09,30.00,20,4,20,0.00
2013-4-18,38.2,31.5,22.6,15.5,7.4,3.3,56,37,25,30.11,30.04,31,12,31,0.00
2013-4-19,41.1,33.4,25.6,11.2,5.4,1.5,38,31,23,30.26,30.10,34,14,34,0.00
2013-4-20,47.5,36.1,25.9,19.2,8.7,2.5,59,33,17,30.35,30.26,22,7,22,0.00
2013-4-21,45.4,34.7,19.6,22.8,12.8,6.8,70,44,21,30.35,30.26,18,3,18,0.00
2013-4-22,50.0,39.5,27.2,22.9,14.9,10.7,76,39,23,30.45,30.34,21,6,21,0.00
2013-4-23,38.2,35.2,32.7,22.5,19.3,14.5,65,52,38,30.41,30.40,15,3,15,0.00
2013-4-27,38.2,32.1,27.5,7.4,5.6,3.9,39,32,24,29.75,29.45,24,11,28,0.00
2013-5-3,41.2,38.9,36.0,38.1,36.5,34.6,95,91,87,29.85,29.82,4,0,4,0.14
2013-5-4,38.1,34.1,31.8,35.8,32.5,30.6,97,94,87,29.87,29.66,14,2,14,0.44
2013-5-5,47.8,38.4,31.5,35.0,28.8,22.4,98,72,40,30.05,29.87,9,1,9,0.01
2013-5-6,49.1,40.1,30.2,30.0,24.8,16.0,90,58,28,30.19,30.05,18,2,18,0.00
2013-5-7,48.9,40.7,30.9,29.9,27.5,25.3,87,62,41,30.22,30.16,9,1,9,0.00
2013-5-8,52.3,44.7,29.3,30.3,23.7,20.0,83,47,30,30.20,30.15,21,6,21,0.00
2013-5-9,54.9,48.0,40.8,30.9,21.9,16.6,51,36,26,30.22,30.16,27,9,27,0.00
2013-5-10,62.2,51.7,39.8,33.0,27.2,24.7,59,40,25,30.16,29.86,24,7,24,0.00
2013-5-11,61.1,49.6,34.6,36.3,31.3,27.9,79,52,31,29.87,29.50,20,4,20,0.00
2013-5-12,54.0,47.6,42.2,45.4,39.8,35.1,95,75,53,29.50,29.38,18,5,18,0.20
2013-5-13,51.5,44.2,38.8,41.0,36.1,27.6,98,76,43,29.39,29.31,15,2,15,0.37
2013-5-14,42.8,36.6,32.2,33.2,28.0,20.5,96,73,43,29.57,29.37,21,5,21,0.18
2013-5-15,49.8,40.9,31.1,34.5,27.0,14.8,98,63,30,29.68,29.57,18,2,18,0.02
2013-5-16,49.5,41.2,30.9,31.5,24.5,19.7,80,53,32,29.68,29.38,22,3,22,0.00
2013-5-17,39.8,35.8,31.2,36.5,32.4,28.8,96,87,68,29.43,29.30,12,2,12,0.26
2013-5-18,37.2,31.4,25.6,29.7,25.7,21.8,94,80,62,30.08,29.43,19,5,19,0.14
2013-5-19,47.8,39.4,29.3,23.7,18.8,12.8,77,46,27,30.53,30.08,15,3,15,0.00
2013-5-20,54.6,42.3,25.3,23.9,18.3,11.8,76,42,23,30.59,30.44,18,4,18,0.00
2013-5-21,57.6,45.6,27.7,30.3,22.6,18.5,75,43,24,30.50,30.17,15,3,15,0.00
2013-5-22,58.8,46.9,30.2,36.2,28.1,22.1,82,52,26,30.20,30.01,15,3,15,0.00
2013-5-23,58.9,50.5,40.6,42.7,38.4,36.0,90,65,45,30.09,30.01,13,2,13,0.00
2013-5-24,69.3,55.0,34.2,38.9,32.8,28.3,94,50,23,30.03,29.87,14,2,14,0.00
2013-5-25,70.3,56.6,36.0,33.6,29.2,19.2,77,40,16,29.93,29.78,14,2,14,0.00
2013-5-26,66.9,52.3,32.2,41.0,31.6,25.5,78,49,25,29.86,29.77,15,2,15,0.00
2013-5-27,76.9,62.1,41.5,41.0,35.4,30.8,81,42,19,29.84,29.65,20,4,20,0.00
2013-5-28,79.1,65.4,47.5,43.1,36.7,30.9,61,36,20,29.70,29.53,18,5,18,0.00
2013-5-29,80.6,67.8,50.6,42.0,36.2,31.5,63,34,17,29.67,29.54,18,4,18,0.00
2013-5-30,74.4,61.0,40.8,44.7,39.4,35.8,84,49,27,29.92,29.67,16,3,16,0.00
2013-5-31,66.3,55.7,38.8,46.0,42.2,35.9,90,62,45,30.06,29.91,15,3,20,0.00
2013-6-1,57.0,51.6,47.2,45.2,43.7,42.0,89,75,62,30.13,30.06,55,2,97,0.00
2013-6-2,51.3,47.6,45.1,46.7,43.9,41.8,96,87,80,30.16,30.02,11,1,11,0.16
2013-6-3,57.9,50.1,41.3,44.8,40.2,35.1,97,72,44,30.02,29.69,12,1,12,0.00
2013-6-4,62.7,52.5,42.1,43.3,35.9,25.9,94,58,27,29.74,29.59,19,3,19,0.01
2013-6-5,63.0,49.8,29.7,35.4,31.9,26.0,91,54,27,29.88,29.74,15,2,15,0.00
2013-6-6,69.4,54.0,31.9,40.7,33.7,28.8,90,51,27,29.90,29.59,15,2,15,0.00
2013-6-7,74.1,59.3,39.2,52.9,39.2,30.6,83,51,23,29.85,29.61,19,3,19,0.04
2013-6-8,73.6,60.7,41.9,48.6,43.4,36.8,93,57,33,30.04,29.85,15,2,15,0.00
2013-6-9,77.6,63.2,42.6,46.4,41.7,33.6,90,51,21,30.12,30.05,16,2,16,0.00
2013-6-10,74.6,61.3,41.8,45.7,41.8,38.1,89,53,30,30.17,30.02,20,3,20,0.00
2013-6-11,73.6,64.1,51.6,46.1,39.0,31.3,74,43,22,30.07,29.88,21,7,21,0.00
2013-6-12,78.0,66.0,55.3,42.5,35.0,28.7,55,33,17,29.94,29.83,20,5,20,0.00
2013-6-13,74.1,60.7,41.8,45.2,39.3,27.5,85,50,19,30.08,29.89,23,3,23,0.00
2013-6-14,72.9,61.3,41.3,48.1,44.6,38.9,92,58,39,30.19,30.08,20,3,20,0.00
2013-6-15,75.7,62.8,42.2,52.8,47.3,39.8,92,60,39,30.26,30.13,15,2,15,0.00
2013-6-16,82.4,67.9,47.5,55.8,50.6,45.0,94,58,35,30.20,30.02,14,2,14,0.00
2013-6-17,85.5,71.5,52.8,60.1,52.8,41.0,87,55,35,30.06,29.79,15,2,15,0.00
2013-6-18,84.1,76.3,58.8,44.7,36.6,28.4,59,25,17,29.82,29.66,30,8,30,0.00
2013-6-19,77.1,63.4,47.3,49.2,42.2,36.0,83,50,25,29.90,29.80,20,2,20,0.00
2013-6-20,74.6,61.1,41.1,47.7,42.7,36.1,90,55,26,29.95,29.84,23,3,23,0.00
2013-6-21,62.2,53.8,48.1,48.5,45.4,40.0,89,74,57,30.01,29.94,20,2,20,0.00
2013-6-22,71.7,57.4,37.5,44.5,39.7,31.9,94,57,28,30.00,29.70,19,2,19,0.00
2013-6-23,70.8,58.9,40.3,46.5,42.0,37.0,89,56,34,29.71,29.55,18,2,18,0.00
2013-6-24,75.7,63.4,48.9,51.2,47.5,41.4,87,59,33,29.62,29.51,14,2,14,0.00
2013-6-25,77.5,65.2,47.9,54.8,50.1,45.4,92,61,38,29.57,29.49,14,2,14,0.00
2013-6-26,80.6,68.1,51.6,55.0,50.3,44.7,92,57,30,29.79,29.53,22,3,22,0.00
2013-6-27,72.0,63.1,51.8,56.4,52.1,47.2,87,68,55,29.99,29.79,18,3,18,0.00
2013-6-28,62.7,56.7,54.4,52.8,51.8,50.2,89,83,68,30.11,29.99,11,2,11,0.00
2013-6-29,66.9,59.2,52.3,53.9,52.0,50.2,96,78,60,30.08,29.92,14,2,14,0.00
2013-6-30,66.8,58.7,53.4,53.5,50.6,47.8,88,75,59,29.98,29.76,16,2,16,0.00
2013-7-1,58.3,53.3,48.1,48.8,46.3,41.6,92,78,58,29.76,29.54,10,1,10,0.00
2013-7-2,64.5,53.8,43.3,46.5,42.8,40.6,91,68,46,29.82,29.54,20,2,20,0.00
2013-7-3,61.0,52.7,45.8,46.1,43.1,40.2,88,71,49,29.95,29.81,12,1,13,0.00
2013-7-4,56.0,51.5,45.2,47.5,43.9,41.5,90,76,63,30.00,29.94,11,1,11,0.00
2013-7-5,65.0,53.9,45.7,47.2,44.1,41.1,93,72,45,30.03,29.94,15,2,15,0.01
2013-7-6,66.6,56.1,46.6,48.7,45.3,41.8,95,70,45,30.00,29.71,13,1,14,0.01
2013-7-7,67.9,55.5,46.0,49.1,44.6,40.6,92,70,40,29.72,29.49,24,2,24,0.00
2013-7-8,59.9,52.1,47.3,49.3,47.1,43.7,97,84,58,29.78,29.59,12,2,14,0.29
2013-7-9,65.6,54.8,46.3,55.4,48.3,43.9,97,80,53,29.98,29.78,16,1,16,0.08
2013-7-10,67.3,57.6,50.3,56.8,50.6,46.3,95,79,53,29.99,29.88,15,0,15,0.19
2013-7-11,75.3,64.3,53.1,52.7,46.5,37.7,87,57,27,29.89,29.80,20,6,20,0.00
2013-7-12,76.7,63.9,48.2,56.9,51.2,46.0,94,67,37,29.91,29.81,12,2,16,0.01
2013-7-13,75.7,63.9,50.6,56.6,52.4,48.5,96,69,45,30.10,29.89,16,2,16,0.00
2013-7-14,69.1,61.8,49.1,54.9,51.1,46.6,92,69,54,30.23,30.09,20,3,20,0.00
2013-7-15,64.2,57.9,54.3,52.2,50.5,48.2,84,77,65,30.29,30.18,12,2,12,0.00
2013-7-16,66.8,59.9,53.4,54.0,52.4,50.4,95,77,60,30.18,30.06,16,2,16,0.00
2013-7-17,70.3,62.6,55.9,56.7,54.1,52.1,89,75,57,30.08,30.00,15,2,15,0.00
2013-7-18,72.7,64.8,56.2,58.6,55.8,53.3,92,74,55,30.08,30.03,15,2,15,0.00
2013-7-19,71.1,63.5,56.0,58.0,54.3,51.6,91,73,53,30.12,30.04,16,2,16,0.00
2013-7-20,69.1,59.0,51.3,54.1,51.3,46.6,96,77,45,30.05,29.98,18,1,18,0.00
2013-7-21,75.0,63.5,45.7,50.9,43.2,37.1,98,53,27,30.00,29.85,20,5,20,0.00
2013-7-22,81.2,69.8,57.0,51.1,44.7,38.9,67,42,26,30.02,29.92,26,6,26,0.00
2013-7-23,78.9,65.4,49.5,54.1,48.9,42.4,88,59,31,30.06,29.94,15,2,16,0.00
2013-7-24,81.4,68.8,51.3,55.2,52.0,48.9,93,59,35,29.98,29.83,16,2,16,0.00
2013-7-25,77.3,65.8,57.4,61.7,55.6,52.0,98,72,45,30.00,29.87,16,2,18,0.59
2013-7-26,72.7,64.7,56.2,59.6,57.5,54.8,98,79,59,30.22,30.00,14,2,14,0.00
2013-7-27,72.0,64.6,58.5,59.3,56.8,54.8,89,76,60,30.28,30.22,14,2,14,0.00
2013-7-28,75.7,67.9,59.4,60.0,57.9,55.6,90,72,54,30.24,30.07,16,2,16,0.00
2013-7-29,75.0,65.3,52.8,61.1,56.7,50.9,96,75,59,30.13,30.05,15,2,15,0.00
2013-7-30,75.0,63.8,53.8,60.3,56.4,51.5,96,78,58,30.16,30.08,15,2,15,0.00
2013-7-31,72.0,62.4,53.1,58.5,55.5,51.1,96,79,59,30.16,30.03,13,1,13,0.00
2013-8-1,70.5,63.4,55.0,56.8,54.2,51.6,89,73,57,30.08,29.89,18,2,18,0.00
2013-8-2,72.9,59.6,43.6,52.2,47.7,41.7,97,68,36,29.95,29.74,16,2,16,0.00
2013-8-3,71.0,60.5,51.9,51.7,47.8,42.4,87,65,38,29.82,29.70,15,1,15,0.00
2013-8-4,69.3,58.4,50.3,49.6,47.4,45.6,87,68,48,29.91,29.82,15,2,15,0.00
2013-8-5,68.1,58.9,49.5,51.5,48.4,46.4,91,70,51,29.92,29.87,14,2,14,0.00
2013-8-6,70.1,59.3,48.9,52.0,46.8,43.8,90,66,43,29.91,29.85,14,1,14,0.00
2013-8-7,62.2,55.4,49.5,51.9,48.0,45.1,89,77,61,29.86,29.68,3,0,6,0.00
2013-8-8,69.9,57.8,48.1,51.4,47.7,45.1,92,71,45,29.76,29.65,21,2,21,0.00
2013-8-9,65.0,54.4,48.6,53.5,48.3,45.3,96,81,52,29.76,29.65,9,0,9,0.08
2013-8-10,64.8,54.0,47.2,54.3,49.7,45.7,99,86,63,29.95,29.70,13,2,13,0.34
2013-8-11,63.5,55.8,50.0,54.4,51.7,49.0,99,87,68,29.98,29.92,12,1,13,0.04
2013-8-12,69.6,60.0,51.5,57.9,53.8,50.2,98,82,58,29.98,29.93,14,1,14,0.00
2013-8-13,71.8,62.6,52.6,56.9,54.1,50.8,97,75,53,29.96,29.86,22,2,22,0.00
2013-8-14,57.9,55.3,52.9,51.1,50.3,49.5,92,83,76,29.95,29.83,10,1,10,0.00
2013-8-15,63.7,55.9,47.3,51.9,49.7,44.8,94,81,61,29.83,29.69,7,0,7,0.00
2013-8-16,66.1,52.6,40.3,51.6,46.5,39.2,99,81,54,29.72,29.59,13,1,13,0.01
2013-8-17,70.6,56.6,48.5,53.3,50.5,47.8,99,82,49,29.60,29.45,11,1,15,0.27
2013-8-18,63.7,55.5,51.5,56.7,53.1,50.4,99,92,73,29.60,29.42,10,0,10,0.36
2013-8-19,55.2,52.0,49.8,52.9,50.4,48.5,98,94,85,29.70,29.60,8,0,8,0.17
2013-8-20,54.0,50.9,48.1,52.1,49.7,47.8,99,96,85,29.80,29.70,8,0,8,0.05
2013-8-21,55.5,51.4,47.9,52.6,49.8,47.6,100,94,83,29.81,29.71,2,0,2,0.19
2013-8-22,57.4,52.4,48.4,53.5,50.0,47.6,100,92,79,29.72,29.62,8,0,8,0.25
2013-8-23,63.2,53.3,48.6,54.1,50.5,45.4,100,91,66,29.63,29.46,14,1,14,0.57
2013-8-24,66.1,54.5,40.9,52.0,43.3,35.4,100,70,35,29.63,29.50,25,4,25,0.00
2013-8-25,66.3,56.0,43.9,48.7,37.9,30.6,92,52,29,29.68,29.59,27,7,27,0.00
2013-8-26,65.4,52.0,37.2,48.8,42.2,36.2,97,73,41,29.71,29.63,12,1,12,0.00
2013-8-27,64.5,52.5,40.9,50.3,45.2,39.7,98,78,50,29.74,29.67,13,1,13,0.16
2013-8-28,59.7,53.1,48.6,52.4,49.8,47.4,99,89,66,29.68,29.53,7,0,7,0.50
2013-8-29,58.3,53.0,49.1,52.9,48.1,43.1,98,84,68,29.81,29.50,19,3,19,0.01
2013-8-30,56.5,51.5,47.2,51.2,49.0,46.7,99,91,77,29.90,29.81,7,0,7,0.02
2013-8-31,52.9,50.6,48.2,52.3,49.3,47.4,99,95,87,29.88,29.80,9,0,9,0.20
2013-9-1,58.0,51.4,46.6,51.9,48.9,46.3,99,92,73,29.80,29.69,9,0,9,0.18
2013-9-2,57.9,52.2,49.4,55.5,51.3,49.1,100,97,86,29.69,29.49,10,0,10,0.74
2013-9-3,69.6,54.1,47.9,56.8,49.6,46.7,99,87,52,29.49,29.20,25,1,25,0.03
2013-9-4,53.8,49.3,46.1,50.0,47.3,45.2,99,93,81,29.75,29.34,9,0,9,0.26
2013-9-5,59.4,47.7,38.9,49.3,43.9,38.4,100,88,57,29.98,29.74,8,0,8,0.00
2013-9-6,50.9,45.9,37.2,42.8,39.9,36.0,99,80,62,29.98,29.39,35,10,35,0.09
2013-9-7,62.9,53.1,46.1,50.8,46.0,41.7,96,78,54,29.57,29.38,19,2,19,0.07
2013-9-8,54.4,49.5,42.6,50.6,48.1,41.8,100,95,83,29.83,29.34,19,1,19,0.55
2013-9-9,60.5,50.3,41.2,47.8,42.3,38.7,100,76,48,29.83,29.61,24,5,24,0.00
2013-9-10,57.7,51.7,46.7,50.6,46.0,39.7,97,82,56,29.70,29.65,24,3,24,0.07
2013-9-11,51.2,48.0,45.7,48.1,46.8,44.7,99,96,87,29.85,29.52,12,1,12,0.49
2013-9-12,57.3,47.0,39.2,48.9,43.4,38.6,99,88,63,29.94,29.85,8,0,8,0.00
2013-9-13,60.3,49.3,40.5,48.0,43.5,39.5,99,82,51,29.92,29.86,19,2,19,0.12
2013-9-14,62.9,49.1,36.3,49.8,43.6,35.8,100,83,48,29.90,29.77,16,2,16,0.00
2013-9-15,64.8,51.3,39.5,42.9,38.9,33.0,100,68,32,29.83,29.64,25,4,25,0.00
2013-9-16,59.9,51.5,38.9,42.3,35.2,29.0,93,56,36,29.64,29.43,26,6,26,0.00
2013-9-17,49.4,45.8,41.2,42.3,37.9,34.0,97,74,58,29.46,29.41,25,5,25,0.03
2013-9-18,51.2,44.0,40.8,44.0,41.6,39.2,99,92,66,29.56,29.45,8,0,10,0.46
2013-9-19,47.3,41.8,36.8,42.3,39.1,34.5,98,90,69,29.54,29.34,10,1,10,0.38
2013-9-20,46.6,35.6,27.8,35.2,30.1,25.8,99,82,54,29.34,29.00,13,1,13,0.00
2013-9-21,47.5,41.1,28.3,31.4,26.1,22.8,93,55,45,29.00,28.88,23,9,23,0.00
2013-9-22,43.3,39.0,34.3,35.4,32.5,28.5,94,78,60,29.21,28.87,21,3,21,0.03
2013-9-23,39.5,35.0,31.8,33.5,32.2,29.8,97,90,76,29.72,29.21,15,1,15,0.01
2013-9-24,48.8,39.0,28.1,34.3,29.3,26.9,99,72,45,29.91,29.72,27,6,27,0.00
2013-9-25,51.2,44.1,39.6,44.0,38.1,29.1,96,80,53,29.76,29.40,23,2,23,0.07
2013-9-26,50.0,43.5,38.8,43.7,40.3,37.2,97,89,71,29.56,29.21,8,0,10,0.02
2013-9-27,53.7,48.2,39.5,38.8,34.5,32.0,92,60,47,29.21,28.96,24,6,24,0.00
2013-9-28,52.8,42.1,29.6,39.4,33.9,27.8,98,74,53,29.09,28.99,12,2,15,0.00
2013-9-29,51.6,46.2,38.1,34.5,31.9,27.5,76,58,43,29.25,29.04,26,4,26,0.00
2013-9-30,52.8,48.2,36.8,32.1,28.8,26.0,79,47,36,29.55,29.25,28,8,28,0.00
2013-10-1,48.4,37.7,27.8,36.2,30.2,25.8,94,76,48,29.77,29.55,11,1,11,0.01
2013-10-2,46.3,43.2,37.8,38.8,35.3,30.5,92,74,59,29.80,29.73,22,7,22,0.14
2013-10-3,49.4,45.0,40.2,35.8,32.9,29.9,82,63,50,29.73,29.43,26,8,26,0.00
2013-10-4,54.6,45.5,38.9,37.0,33.7,30.9,86,64,43,29.69,29.43,15,3,15,0.00
2013-10-5,51.5,42.2,35.6,37.2,34.5,31.1,89,75,52,29.73,29.64,14,1,14,0.00
2013-10-6,43.5,38.2,34.0,40.8,35.8,31.9,96,91,83,29.66,29.62,8,0,8,0.11
2013-10-7,48.1,40.3,37.2,39.7,35.1,27.4,99,84,54,29.81,29.66,22,2,22,0.07
2013-10-8,41.6,39.4,37.5,37.8,34.0,27.2,99,82,57,29.68,28.99,21,4,21,0.75
2013-10-9,45.2,38.8,31.2,38.3,35.0,29.4,97,87,60,29.69,29.01,19,2,19,0.06
2013-10-10,42.1,35.5,27.1,30.9,26.4,22.1,96,71,49,29.71,29.66,22,5,22,0.00
2013-10-11,48.2,41.1,36.9,35.8,30.1,26.8,84,65,47,29.83,29.68,18,3,18,0.04
2013-10-12,52.8,44.5,37.6,34.0,30.6,28.0,78,59,41,29.82,29.62,21,3,21,0.00
2013-10-13,50.3,41.4,31.2,40.0,33.1,26.6,99,75,41,29.66,29.39,32,8,32,0.28
2013-10-14,47.0,39.6,34.8,38.6,35.3,33.0,99,85,66,30.02,29.66,9,1,9,0.02
2013-10-15,41.3,39.2,37.5,40.5,36.8,32.6,99,91,78,30.11,30.01,8,0,8,0.44
2013-10-16,50.3,43.8,40.2,45.0,41.2,38.4,99,91,73,30.20,30.11,8,0,8,0.02
2013-10-17,52.9,42.9,38.6,43.4,39.4,36.2,98,88,56,30.11,29.77,16,0,16,0.07
2013-10-18,53.4,45.4,40.5,39.3,33.2,24.2,94,64,33,29.77,29.61,16,2,16,0.00
2013-10-19,48.6,45.7,41.2,39.3,32.3,23.7,79,60,41,29.62,29.31,31,6,31,0.00
2013-10-20,46.6,39.8,32.4,34.6,30.9,25.2,88,71,54,29.91,29.62,13,1,13,0.00
2013-10-21,45.2,37.5,29.0,30.3,26.1,23.4,81,64,49,30.01,29.90,19,4,19,0.00
2013-10-22,44.7,36.3,28.7,29.3,25.4,19.5,83,65,49,30.14,29.99,21,4,21,0.00
2013-10-23,39.3,31.8,20.9,25.0,20.2,16.2,91,64,39,30.01,29.70,26,7,26,0.00
2013-10-24,37.3,35.3,23.7,22.9,18.6,13.0,78,50,41,29.81,29.65,31,13,31,0.00
2013-10-25,42.5,37.8,32.7,30.3,25.8,22.4,85,62,52,30.12,29.69,22,2,22,0.00
2013-10-26,43.6,35.6,25.6,28.5,24.7,19.2,94,68,40,30.43,30.12,37,7,37,0.00
2013-10-27,42.8,39.4,36.5,36.8,29.8,23.3,95,70,48,30.27,29.61,38,11,38,0.19
2013-10-28,50.4,42.6,37.9,44.4,40.1,36.8,99,91,68,29.61,29.16,8,0,8,0.76
2013-10-29,42.3,37.3,30.5,38.2,33.2,25.6,100,86,58,29.52,29.35,0,0,0,0.04
2013-10-30,45.5,42.1,38.5,31.3,28.8,25.3,70,59,53,29.35,29.05,29,10,29,0.00
2013-10-31,42.3,39.8,35.9,34.9,31.0,26.7,94,71,60,29.56,29.10,21,5,21,0.01
2013-11-1,41.1,37.2,34.3,37.8,35.7,33.3,98,94,86,29.93,29.55,2,0,2,0.15
2013-11-2,37.3,35.1,31.9,36.3,30.2,24.5,96,83,68,29.94,29.79,15,2,15,0.03
2013-11-3,37.2,34.6,32.1,24.8,23.0,20.0,69,62,56,29.82,29.54,25,9,25,0.00
2013-11-4,39.2,36.4,33.3,26.6,22.3,20.2,63,56,49,29.56,29.24,27,12,31,0.00
2013-11-5,38.1,35.2,26.3,30.4,26.5,23.1,91,71,59,29.91,29.31,20,4,20,0.00
2013-11-6,34.9,30.8,24.7,24.0,15.9,10.2,92,55,44,30.00,29.89,37,10,37,0.00
2013-11-7,27.5,23.7,20.6,11.5,8.3,4.8,54,51,49,29.89,29.76,41,18,41,0.00
2013-11-8,26.0,19.8,15.5,8.0,6.1,4.4,64,55,43,30.20,29.82,27,7,27,0.00
2013-11-9,25.4,22.1,17.4,19.0,10.4,5.2,79,60,47,30.21,29.97,24,6,24,0.00
2013-11-10,30.6,27.4,23.8,29.3,25.2,18.3,96,91,76,29.98,29.66,8,1,8,0.00
2013-11-11,30.6,28.2,25.6,26.5,22.0,13.3,94,78,60,29.99,29.75,27,5,27,0.00
2013-11-12,25.7,21.8,14.6,13.8,6.0,0.4,67,50,41,30.09,29.99,29,9,29,0.00
2013-11-13,24.6,20.2,16.5,13.6,8.2,3.2,79,60,51,30.18,30.06,16,2,16,0.00
2013-11-14,33.4,27.4,17.9,32.4,24.9,13.5,98,90,75,30.09,29.80,8,1,12,0.17
2013-11-15,26.2,17.4,12.8,18.0,13.4,9.1,90,84,66,30.03,29.89,14,0,14,0.00
2013-11-16,22.5,12.3,-2.0,15.0,4.8,-7.7,88,72,41,30.17,29.92,13,2,14,0.00
2013-11-17,15.5,12.8,9.0,-2.8,-7.4,-12.4,52,39,35,30.21,30.15,27,8,27,0.00
2013-11-18,11.1,5.3,1.0,-11.1,-13.2,-15.9,46,41,34,30.16,30.10,27,9,27,0.00
2013-11-19,5.3,1.3,-4.1,-14.3,-17.9,-22.5,44,39,34,30.10,29.99,22,8,22,0.00
2013-11-20,4.2,-0.1,-4.3,-17.7,-20.2,-22.4,43,37,30,30.11,30.01,40,12,40,0.00
2013-11-21,8.3,4.3,-1.2,-8.1,-19.8,-24.8,52,31,25,30.04,29.35,54,17,54,0.00
2013-11-22,22.8,16.7,7.4,20.6,10.8,-0.5,92,78,66,29.46,29.12,47,10,47,0.00
2013-11-23,21.4,14.3,5.0,17.8,9.8,0.2,89,82,66,29.97,29.44,15,0,15,0.00
2013-11-24,28.5,24.2,17.9,21.9,17.1,11.3,83,74,64,30.02,29.97,16,2,16,0.00
2013-11-25,35.0,30.5,19.6,20.0,17.9,15.0,83,59,49,29.98,29.65,25,10,25,0.00
2013-11-26,32.7,31.0,29.3,23.9,18.5,15.1,74,59,51,29.81,29.69,25,10,25,0.00
2013-11-27,30.9,27.3,18.9,24.8,21.0,5.8,93,78,58,29.80,29.57,26,3,26,0.00
2013-11-28,18.9,11.1,-3.8,8.9,3.4,-10.3,84,71,57,29.97,29.62,18,1,18,0.00
2013-11-29,7.8,-4.5,-13.0,-6.3,-14.6,-20.0,78,63,35,30.14,29.95,24,3,24,0.00
2013-11-30,11.3,7.8,2.5,-10.9,-15.3,-18.2,40,33,28,30.34,30.13,34,13,34,0.00
2013-12-1,23.4,16.3,8.2,-3.2,-8.7,-14.3,35,32,27,30.51,30.33,34,16,34,0.00
2013-12-2,25.3,22.2,18.5,0.6,-2.6,-5.2,43,33,27,30.67,30.48,31,11,31,0.00
2013-12-3,18.9,16.2,12.5,7.0,3.3,-1.1,67,57,41,30.69,30.50,12,1,12,0.00
2013-12-4,23.7,19.5,16.0,17.4,11.5,5.5,77,71,59,30.52,30.36,5,0,5,0.00
2013-12-5,38.9,32.1,23.7,27.9,19.1,12.0,91,61,34,30.46,30.33,21,4,21,0.02
2013-12-6,36.2,34.7,32.5,31.5,24.7,17.4,95,68,48,30.49,30.46,18,3,18,0.09
2013-12-7,35.5,32.3,28.8,32.4,30.4,27.8,98,92,84,30.46,30.38,9,0,9,0.02
2013-12-8,31.4,21.4,12.6,28.0,19.0,9.1,95,90,84,30.42,30.34,4,0,4,0.00
2013-12-9,29.7,25.1,19.2,24.3,21.2,16.8,92,85,68,30.37,30.15,10,0,10,0.00
2013-12-10,28.7,27.3,25.4,22.4,18.3,9.9,83,69,47,30.16,29.79,40,8,40,0.00
2013-12-11,27.5,20.1,13.4,10.8,0.0,-7.5,50,41,36,29.80,29.43,41,17,42,0.00
2013-12-12,14.4,13.6,11.9,-2.9,-6.0,-8.4,47,41,36,29.49,29.37,45,18,45,0.00
2013-12-13,20.0,14.5,10.6,7.0,-2.2,-8.4,57,47,40,29.50,28.82,44,19,44,0.00
2013-12-14,20.0,17.5,15.7,12.5,5.3,0.4,85,59,46,29.04,28.80,38,10,38,0.00
2013-12-15,15.7,9.8,4.2,12.5,5.1,-0.7,87,81,76,29.86,29.03,5,0,6,0.00
2013-12-16,10.6,8.3,3.7,4.1,-2.1,-6.3,82,63,46,30.03,29.86,32,8,32,0.00
2013-12-17,10.2,0.4,-11.7,-6.0,-11.1,-19.3,76,58,45,30.36,30.03,29,6,29,0.00
2013-12-18,7.8,3.6,1.4,-0.3,-11.7,-15.3,70,48,43,30.37,29.82,33,14,33,0.00
2013-12-19,18.4,14.8,7.4,4.9,2.2,-3.0,72,57,51,29.83,29.58,34,14,34,0.00
2013-12-20,22.5,20.0,18.2,14.9,7.1,4.0,79,57,51,29.67,29.58,28,11,28,0.00
2013-12-21,27.7,24.0,20.1,16.9,12.1,6.9,74,60,55,29.65,29.43,25,11,25,0.00
2013-12-22,28.5,25.5,18.2,25.4,20.9,14.5,91,83,65,29.62,29.29,25,5,25,0.00
2013-12-23,18.2,6.0,-6.6,14.5,-1.4,-13.0,85,71,55,30.12,29.62,19,3,19,0.00
2013-12-24,8.5,5.7,3.3,-7.0,-9.4,-11.7,57,49,44,30.13,29.75,33,14,33,0.00
2013-12-25,14.6,10.9,5.9,-3.2,-6.6,-11.0,48,44,41,29.76,29.64,34,17,34,0.00
2013-12-26,13.9,11.6,9.2,-7.5,-9.2,-13.4,44,38,29,29.72,29.61,29,17,33,0.00
2013-12-27,11.8,9.8,6.7,-7.5,-10.8,-14.8,42,38,32,29.97,29.72,37,18,37,0.00
2013-12-28,20.3,16.2,11.6,8.3,2.0,-8.6,62,53,40,29.95,29.86,43,14,43,0.00
2013-12-29,22.9,19.2,14.2,10.2,8.0,6.1,72,61,57,29.90,29.66,34,14,34,0.00
2013-12-30,26.0,22.7,19.8,10.5,8.9,4.9,61,55,48,29.67,29.39,34,17,34,0.00
2013-12-31,22.0,18.5,15.4,10.2,4.5,0.8,68,54,49,29.65,29.32,40,19,40,0.00
2014-1-1,25.3,22.2,18.2,15.2,12.0,10.1,78,64,58,29.45,29.16,35,15,37,0.00
2014-1-2,26.3,22.6,19.8,20.4,15.6,11.9,88,74,62,30.03,29.46,16,1,16,0.00